TimeAKST,TemperatureF,Dew PointF,Humidity,Sea Level PressureIn,VisibilityMPH,Wind Direction,Wind SpeedMPH,Gust SpeedMPH,PrecipitationIn,Events,Conditions,WindDirDegrees,DateUTC
12:53 AM,8.1,5.0,87,29.46,10.0,Calm,Calm,-,N/A,,Mostly Cloudy,0,2011-11-27 09:53:00
1:53 AM,10.9,7.0,84,29.44,10.0,Calm,Calm,-,N/A,,Overcast,0,2011-11-27 10:53:00
3:53 AM,18.0,12.0,78,29.38,10.0,Calm,Calm,-,N/A,,Overcast,0,2011-11-27 12:53:00
4:53 AM,17.1,12.0,81,29.34,10.0,West,3.5,-,N/A,,Overcast,270,2011-11-27 13:53:00
5:37 AM,21.2,15.8,80,29.31,4.0,SW,4.6,-,0.00,Snow,Light Snow,220,2011-11-27 14:37:00
5:53 AM,18.0,14.0,84,29.31,4.0,WSW,3.5,-,0.00,Snow,Light Snow,250,2011-11-27 14:53:00
6:53 AM,19.0,16.0,88,29.26,3.0,West,4.6,-,0.02,Snow,Light Snow,260,2011-11-27 15:53:00
7:53 AM,30.9,28.0,89,29.21,3.0,ENE,19.6,-,0.04,Snow,Light Snow,70,2011-11-27 16:53:00
7:57 AM,30.2,26.6,86,29.20,3.0,ENE,19.6,-,0.01,Snow,Light Snow,70,2011-11-27 16:57:00
8:53 AM,30.9,28.0,89,29.18,1.2,NE,17.3,-,0.02,Snow,Light Snow,50,2011-11-27 17:53:00
8:58 AM,30.2,28.4,93,29.17,1.0,ENE,17.3,-,0.00,Snow,Light Snow,60,2011-11-27 17:58:00
9:04 AM,30.2,28.4,93,29.17,1.0,ENE,17.3,-,0.01,Snow,Light Snow,60,2011-11-27 18:04:00
9:09 AM,30.2,28.4,93,29.16,0.8,NE,20.7,-,0.01,Snow,Light Snow,50,2011-11-27 18:09:00
9:26 AM,32.0,28.4,87,29.16,0.8,ENE,21.9,29.9,0.02,Snow,Light Snow,60,2011-11-27 18:26:00
9:53 AM,33.1,30.0,89,29.14,0.8,ENE,21.9,-,0.02,Snow,Light Snow,60,2011-11-27 18:53:00
10:53 AM,34.0,30.9,89,29.10,0.8,ENE,20.7,-,0.05,Snow,Light Snow,60,2011-11-27 19:53:00
11:53 AM,34.0,32.0,92,29.05,1.5,NE,26.5,31.1,0.04,Snow,Light Snow,40,2011-11-27 20:53:00
12:36 PM,35.6,33.8,93,29.01,3.0,NE,23.0,-,0.03,Snow,Light Snow,40,2011-11-27 21:36:00
12:51 PM,35.6,33.8,93,28.99,2.0,NE,25.3,29.9,0.03,Snow,Light Snow,40,2011-11-27 21:51:00
12:53 PM,35.1,33.1,92,29.00,2.0,NE,25.3,31.1,0.03,Snow,Light Snow,50,2011-11-27 21:53:00
1:24 PM,35.6,33.8,93,28.97,5.0,NE,21.9,-,0.01,Rain,Light Rain,40,2011-11-27 22:24:00
1:53 PM,37.0,35.1,93,28.96,5.0,NNE,19.6,-,0.01,Rain,Light Rain,30,2011-11-27 22:53:00
2:53 PM,37.0,34.0,89,28.95,6.0,NE,12.7,-,0.02,Rain,Light Rain,40,2011-11-27 23:53:00
3:53 PM,35.1,33.1,92,28.96,10.0,WNW,4.6,-,0.00,,Overcast,300,2011-11-28 00:53:00
4:53 PM,36.0,33.1,89,28.97,7.0,NNW,8.1,-,0.01,,Overcast,330,2011-11-28 01:53:00
5:53 PM,36.0,32.0,86,28.99,7.0,WNW,13.8,-,N/A,,Overcast,300,2011-11-28 02:53:00
6:53 PM,36.0,32.0,86,29.00,10.0,WNW,16.1,21.9,N/A,,Mostly Cloudy,290,2011-11-28 03:53:00
7:53 PM,36.0,32.0,86,29.04,10.0,WNW,10.4,-,N/A,,Mostly Cloudy,300,2011-11-28 04:53:00
8:53 PM,36.0,32.0,86,29.06,10.0,WNW,9.2,-,N/A,,Mostly Cloudy,300,2011-11-28 05:53:00
9:53 PM,36.0,30.9,82,29.08,10.0,NW,12.7,20.7,N/A,,Mostly Cloudy,310,2011-11-28 06:53:00
10:53 PM,36.0,30.0,79,29.10,10.0,WNW,11.5,-,N/A,,Mostly Cloudy,300,2011-11-28 07:53:00
11:53 PM,36.0,28.9,76,29.12,10.0,WNW,13.8,23.0,N/A,,Mostly Cloudy,300,2011-11-28 08:53:00